Weather History for KARB - September, 2013

Change the Weather History Date:

Monday, September 9, 2013

  Actual Average Record
Temperature  
Mean Temperature 63 °F -  
Max Temperature 78 °F 75 °F 91 °F (2002)
Min Temperature 48 °F 50 °F 42 °F (2012)
Degree Days  
Heating Degree Days 2    
Growing Degree Days 13 (Base 50)    
Moisture  
Dew Point 61 °F    
Average Humidity 91    
Maximum Humidity 100    
Minimum Humidity 76    
Precipitation  
Precipitation 0.33 in - - ()
Sea Level Pressure  
Sea Level Pressure 30.00 in    
Wind  
Wind Speed 1 mph (SSE)    
Max Wind Speed 9 mph    
Max Gust Speed -    
Visibility 6 miles    
Events Fog , Rain , Thunderstorm    
Averages and records for this station are not official NWS values.
T = Trace of Precipitation, MM = Missing Value Source: NWS Daily Summary

Daily Weather History Graph

Daily Weather History Graph

Search for Another Location

Airport or City:

Trip Planner

Search our weather history database for the weather conditions in past years. The results will help you decide how hot, cold, wet, or windy it might be!

Date:

Astronomy

Sep. 09, 2013 Rise Set
Actual Time 7:08 AM EDT 7:54 PM EDT
Civil Twilight 6:40 AM EDT 8:22 PM EDT
Nautical Twilight 6:06 AM EDT 8:56 PM EDT
Astronomical Twilight 5:31 AM EDT 9:31 PM EDT
Moon 11:35 AM EDT (9/9) 10:04 PM EDT (9/9)
Length of Visible Light 13h 42m
Length of Day
12h 45m
Waxing Crescent, 19% of the Moon is Illuminated
Sep 9
Waxing Crescent
Sep 12
First Quarter
Sep 19
Full
Sep 26
Last Quarter
Oct 4
New

Hourly Weather History & Observations

Time (EDT) Temp. Dew Point Humidity Pressure Visibility Wind Dir Wind Speed Gust Speed Precip Events Conditions
12:53 AM 52.0 °F 48.0 °F 86% 30.07 in 10.0 mi Calm Calm - N/A   Clear
1:53 AM 48.9 °F 46.0 °F 90% 30.08 in 10.0 mi Calm Calm - N/A   Clear
2:53 AM 53.1 °F 50.0 °F 89% 30.07 in 10.0 mi Calm Calm - N/A   Clear
3:53 AM 55.0 °F 51.1 °F 86% 30.06 in 10.0 mi Calm Calm - N/A   Scattered Clouds
4:53 AM 57.0 °F 52.0 °F 83% 30.06 in 10.0 mi Calm Calm - N/A   Partly Cloudy
5:53 AM 57.9 °F 53.1 °F 84% 30.05 in 10.0 mi Calm Calm - N/A   Clear
6:53 AM 57.9 °F 55.0 °F 90% 30.04 in 10.0 mi Calm Calm - 0.00 in   Scattered Clouds
7:53 AM 59.0 °F 57.0 °F 93% 30.05 in 10.0 mi Calm Calm - 0.01 in   Overcast
8:53 AM 61.0 °F 57.9 °F 90% 30.04 in 10.0 mi Calm Calm - N/A   Overcast
9:38 AM 62.6 °F 57.2 °F 82% 30.03 in 10.0 mi SE 3.5 mph - 0.00 in Rain Light Rain
9:53 AM 62.1 °F 57.0 °F 84% 30.03 in 10.0 mi SSE 3.5 mph - 0.00 in Rain Light Rain
10:27 AM 62.6 °F 57.2 °F 82% 30.05 in 10.0 mi Calm Calm - 0.00 in Rain Light Rain
10:53 AM 62.1 °F 59.0 °F 90% 30.04 in 10.0 mi Calm Calm - 0.01 in Rain Light Rain
11:28 AM 60.8 °F 59.0 °F 94% 30.04 in 4.0 mi Calm Calm - 0.05 in Rain , Thunderstorm Light Rain
11:35 AM 60.8 °F 59.0 °F 94% 30.05 in 2.5 mi Calm Calm - 0.07 in Rain , Thunderstorm Rain
11:39 AM 60.8 °F 59.0 °F 94% 30.05 in 1.8 mi Calm Calm - 0.09 in Rain Rain
11:48 AM 60.8 °F 59.0 °F 94% 30.05 in 2.0 mi Calm Calm - 0.13 in Rain Rain
11:53 AM 61.0 °F 59.0 °F 93% 30.05 in 2.0 mi Calm Calm - 0.15 in Rain Rain
12:02 PM 60.8 °F 59.0 °F 94% 30.05 in 2.0 mi Calm Calm - 0.03 in Rain Rain
12:21 PM 60.8 °F 59.0 °F 94% 30.04 in 3.0 mi Calm Calm - 0.10 in Rain , Thunderstorm Rain
12:28 PM 62.6 °F 60.8 °F 94% 30.04 in 5.0 mi Calm Calm - 0.11 in Rain , Thunderstorm Light Rain
12:42 PM 62.6 °F 60.8 °F 94% 30.04 in 5.0 mi Calm Calm - 0.12 in Rain Light Rain
12:53 PM 62.1 °F 60.1 °F 93% 30.04 in 4.0 mi ESE 3.5 mph - 0.15 in Rain Light Rain
1:02 PM 62.6 °F 60.8 °F 94% 30.03 in 2.5 mi East 3.5 mph - 0.01 in Rain Light Rain
1:09 PM 62.6 °F 60.8 °F 94% 30.03 in 6.0 mi ESE 3.5 mph - 0.01 in Rain Light Rain
1:53 PM 64.9 °F 63.0 °F 93% 29.99 in 7.0 mi South 9.2 mph - 0.01 in   Mostly Cloudy
2:08 PM 66.2 °F 64.4 °F 94% 29.99 in 7.0 mi SSW 5.8 mph - N/A   Mostly Cloudy
2:33 PM 66.2 °F 64.4 °F 94% 29.99 in 7.0 mi South 6.9 mph - N/A   Mostly Cloudy
2:40 PM 69.8 °F 66.2 °F 88% 29.98 in 7.0 mi SSW 6.9 mph - N/A   Scattered Clouds
2:53 PM 69.1 °F 66.0 °F 90% 29.98 in 8.0 mi South 6.9 mph - N/A   Scattered Clouds
3:53 PM 73.9 °F 68.0 °F 82% 29.95 in 9.0 mi SSE 5.8 mph - N/A   Clear
4:53 PM 77.0 °F 69.1 °F 76% 29.94 in 9.0 mi SSE 4.6 mph - N/A   Clear
5:53 PM 78.1 °F 70.0 °F 76% 29.93 in 10.0 mi SE 6.9 mph - N/A   Clear
6:53 PM 75.9 °F 70.0 °F 82% 29.92 in 9.0 mi ESE 4.6 mph - N/A   Clear
7:53 PM 73.0 °F 70.0 °F 90% 29.91 in 7.0 mi SE 4.6 mph - N/A   Clear
8:53 PM 71.1 °F 68.0 °F 90% 29.92 in 6.0 mi SSE 3.5 mph - N/A   Clear
9:53 PM 70.0 °F 66.9 °F 90% 29.93 in 5.0 mi East 3.5 mph - N/A   Clear
10:53 PM 68.0 °F 66.0 °F 93% 29.93 in 3.0 mi Calm Calm - N/A   Clear
10:59 PM 66.2 °F 66.2 °F 100% 29.93 in 1.8 mi Calm Calm - N/A   Clear
11:06 PM 66.2 °F 66.2 °F 100% 29.93 in 0.8 mi Calm Calm - N/A   Clear
11:20 PM 66.2 °F 66.2 °F 100% 29.93 in 1.2 mi Calm Calm - N/A   Clear
11:23 PM 66.2 °F 66.2 °F 100% 29.94 in 2.0 mi Calm Calm - N/A   Clear
11:37 PM 66.2 °F 64.4 °F 94% 29.93 in 1.0 mi Calm Calm - N/A   Clear
11:44 PM 66.2 °F 64.4 °F 94% 29.93 in 0.5 mi Calm Calm - N/A Fog Fog
11:53 PM 64.9 °F 64.9 °F 100% 29.92 in 0.5 mi Calm Calm - N/A Fog Fog